Regional Weather Roundup
Issued by NWS Upton, NY

Current Version | Previous Version | Text Only | Print | Product List | Glossary Off
Versions: 1 2 3 4 5 6 7 8 9 10 11 12 13 14 15 16 17 18 19 20 21 22 23 24 25 26 27 28 29 30 31 32 33 34 35 36 37 38 39 40 41 42 43 44 45 46 47 48 49 50
000 ASUS41 KOKX 031504 RWROKX REGIONAL WEATHER ROUNDUP NATIONAL WEATHER SERVICE NEW YORK NY 1100 AM EDT MON AUG 03 2015 NOTE: "FAIR" INDICATES FEW OR NO CLOUDS BELOW 12,000 FEET WITH NO SIGNIFICANT WEATHER AND/OR OBSTRUCTIONS TO VISIBILITY. NYZ071-072-176-178-NJZ106-104-031600- NEW YORK CITY METRO AREA CITY SKY/WX TMP DP RH WIND PRES REMARKS CENTRAL PARK SUNNY 83 62 49 SW8 29.88R LAGUARDIA APRT MOSUNNY 85 59 41 SW12 29.84S KENNEDY INTL MOSUNNY 83 64 52 S14 29.87R NEWARK/LIBERTY MOSUNNY 85 61 44 SW14G20 29.84S BRNX BOT. GARD N/A 84 59 42 S10 29.85S TETERBORO MOSUNNY 86 60 41 S13G20 29.83S $$ NYZ177-179-078>081-031600- LONG ISLAND NEW YORK CITY SKY/WX TMP DP RH WIND PRES REMARKS FARMINGDALE PTSUNNY 83 63 50 SW13G21 29.87R ISLIP MOSUNNY 83 65 54 S14 29.86R SHIRLEY SUNNY 84 63 49 SW9G20 29.88R WESTHAMPTON SUNNY 84 66 54 SW12G22 29.89S MONTAUK POINT N/A 82 72 71 SW8 29.88S $$ NYZ052-065-067-031600- HUDSON VALLEY CITY SKY/WX TMP DP RH WIND PRES REMARKS WHITE PLAINS MOSUNNY 84 59 42 S6 29.85S NEWBURGH NOT AVBL MONTGOMERY SUNNY 84 64 50 SW13 29.81F POUGHKEEPSIE SUNNY 86 60 41 S12 29.80S ALBANY MOSUNNY 83 63 50 S18 29.73F $$ NJZ001-105-106-008-010-013-015-019>022-104-031600- NEW JERSEY CITY SKY/WX TMP DP RH WIND PRES REMARKS NEWARK/LIBERTY MOSUNNY 85 61 44 SW14G20 29.84S TETERBORO MOSUNNY 86 60 41 S13G20 29.83S CALDWELL MOSUNNY 82 62 50 VRB7 29.85R MORRISTOWN MOSUNNY 86 64 48 SW12G17 29.85S SOMERVILLE MOSUNNY 83 64 52 S9 29.83F SUSSEX SUNNY 80 63 55 SW7 29.83S ANDOVER N/A 80 64 58 SW9 29.85S TRENTON PTSUNNY 84 62 47 W13 29.86R MILLVILLE SUNNY 85 66 53 SW8 29.89S ATLANTIC CITY SUNNY 86 63 45 SW14 29.89S WRIGHTSTOWN NOT AVBL TOMS RIVER N/A 86 63 45 SW15 29.88S BELMAR SUNNY 84 61 45 SW13G18 29.87S $$ PAZ047>061-062-071-031600- EASTERN PENNSYLVANIA CITY SKY/WX TMP DP RH WIND PRES REMARKS PHILADELPHIA MOSUNNY 85 62 46 SW17 29.87S ALLENTOWN SUNNY 82 64 54 SW12 29.85S SCRANTON SUNNY 81 61 50 SW14 29.82S $$ CTZ002-004>006-009-010-012-RIZ004-006-007-MAZ004-011-015-031600- SOUTHERN NEW ENGLAND IN CT CITY SKY/WX TMP DP RH WIND PRES REMARKS BRADLEY INTL MOSUNNY 84 62 47 S13 29.82S HARTFORD MOSUNNY 85 63 47 S14G21 29.82F DANBURY MOSUNNY 81 59 47 S12 29.86S WTRBRY/OXFORD NOT AVBL BRIDGEPORT MOSUNNY 83 64 52 SW8 29.85S MERIDEN SUNNY 84 62 47 S16G22 29.84F NEW HAVEN MOSUNNY 80 66 62 S7 29.86S CHESTER PTSUNNY 81 64 57 SW8 29.89R GROTON SUNNY 78 70 76 S7 29.86S WILLIMANTIC PTSUNNY 84 63 49 SW10 29.85S IN RI CITY SKY/WX TMP DP RH WIND PRES REMARKS PROVIDENCE MOSUNNY 84 65 52 SW16 29.86F BLOCK ISLAND N/A 81 73 78 SW14 29.90R WESTERLY SUNNY 80 70 71 S13 29.88S IN MA CITY SKY/WX TMP DP RH WIND PRES REMARKS BOSTON MOSUNNY 86 59 39 SW16G25 29.83F WORCESTER SUNNY 80 61 52 SW14G20 29.87S WESTFIELD SUNNY 83 65 54 S12 29.81F PROVINCETOWN SUNNY 81 66 61 SW14 29.87F NANTUCKET SUNNY 79 70 74 S10 29.91R $$ ANZ330-335-338-340-345-350-353-355-031600- COASTAL MARINE OBSERVATIONS STATION/POSITION TIME SKY/WX TEMP WIND PRES VSBY WAVE AIR SEA DIR/SP/G HT/PER (UTC) (F) (DEG/KT/KT) (MB) (MI) (FT/S) NY HARB ENTRANCE 1350 76 72 200/ 12/ 14 1010.7 3/ 6 4S FIRE IS NOT AVBL 20S FIRE ISLAND 1350 76 76 220/ 10/ 12 1011.2 3/ 7 GREAT SOUTH BAY 1400 77 80 210/ 14/ 16 N/A 23SW MTP 1450 76 75 210/ 8/ 10 1011.3 3/ 7 HUDSON CANYON NOT AVBL KINGS POINT 1400 80 79 240/ 9/ 13 1010.0 EXECUTION ROCKS 1400 80 200/ 4/ 6 N/A CENTRAL LI SOUND NOT AVBL EASTERN LI SOUND 1400 74 69 170/ 4/ 4 N/A ROBBINS REEF 1400 79 230/ 11/ 14 1009.5 $$ >>>>>>>>>>>>>>>>>>>>>>>>>>>> KEY <<<<<<<<<<<<<<<<<<<<<<<<<<< > < > SKY/WX - SKY CONDITION/PRESENT WEATHER < > TMP - TEMPERATURE IN FAHRENHEIT < > DP - DEWPOINT IN FAHRENHEIT < > RH - RELATIVE HUMIDITY IN PERCENT < > WIND - DIRECTION AND SPEED IN MPH < > PRES - MEAN SEA LEVEL PRESSURE IN INCHES OF HG < > WCI - WIND CHILL INDEX < > VSB - VISIBILITY IN MILES < > HX - HEAT INDEX < > TC - TEMPERATURE IN CELSIUS < > VRB - VARIABLE WIND DIRECTION < > < >>>>>>>>>>>>>>>>>>>>>>>>>>>> KEY <<<<<<<<<<<<<<<<<<<<<<<<<<<

USA.gov is the U.S. government's official web portal to all federal, state and local government web resources and services.